Regional Weather Roundup
Issued by NWS State College, PA

Home | Current Version | Previous Version | Graphics & Text | Print | Product List | Glossary On
Versions: 1 2 3 4 5 6 7 8 9 10 11 12 13 14 15 16 17 18 19 20 21 22 23 24 25 26 27 28 29 30 31 32 33 34 35 36 37 38 39 40 41 42 43 44 45 46 47 48 49 50
000
ASUS41 KCTP 261203
RWRCTP

REGIONAL WEATHER ROUNDUP
NATIONAL WEATHER SERVICE STATE COLLEGE PA
800 AM EDT MON JUN 26 2017

Note: "fair" indicates few or no clouds below 12,000 feet with no
significant weather and/or obstructions to visibility.

* = STATION THAT DOES NOT REPORT PRECIPITATION /E.G. RAIN...SNOW...ETC/
    THUNDER OR FOG.

PAZ002>004-007>009-013>016-020>023-029>032-261300-
WESTERN PENNSYLVANIA

CITY           SKY/WX    TMP DP  RH WIND       PRES   REMARKS
ERIE           SUNNY     62  51  67 S9        30.03S
MEADVILLE      CLOUDY    54  51  90 SW3       30.07R
FRANKLIN*      CLOUDY    54  46  76 SW6       30.08R
NEW CASTLE     FAIR      57  50  77 CALM      30.08S
BEAVER COUNTY  SUNNY     59  48  67 SW5       30.09R
BUTLER*        SUNNY     57  48  72 SW6       30.09R
PITTSBURGH INT MOSUNNY   60  48  64 SW7       30.08S
PITTSBURGH     SUNNY     61  45  55 SW8       30.09R
INDIANA*       SUNNY     57  52  82 SW7       30.12S
LATROBE        SUNNY     59  54  82 SW7       30.11R
WASHINGTON CO* MOSUNNY   59  52  77 SW3       30.12S
$$

PAZ004>006-010>012-017>019-024>028-033>037-041-042-045-046-049>053-261300-
CENTRAL PENNSYLVANIA

CITY           SKY/WX    TMP DP  RH WIND       PRES   REMARKS
BRADFORD       SUNNY     54  49  83 SW5       30.07R
DUBOIS         SUNNY     54  47  77 SW7       30.08R
CLEARFIELD     SUNNY     53  51  93 SW5       30.09S
JOHNSTOWN      SUNNY     57  45  64 SW6       30.11R
ALTOONA        SUNNY     60  50  69 S7        30.10S
STATE COLLEGE  NOT AVBL
WILLIAMSPORT   NOT AVBL
SELINSGROVE    NOT AVBL
FT INDIANTOWN  SUNNY     64  55  72 SW6       30.06S
CAPITAL CITY   NOT AVBL
HARRISBURG     SUNNY     67  53  61 NW9       30.06S
YORK           NOT AVBL
$$

PAZ038>040-043-044-047-048-054-055-060>062-067>071-261300-
EASTERN PENNSYLVANIA

CITY           SKY/WX    TMP DP  RH WIND       PRES   REMARKS
SCRANTON       NOT AVBL
MOUNT POCONO   NOT AVBL
ALLENTOWN      NOT AVBL
QUAKERTOWN*    SUNNY     66  54  63 CALM      30.07S
READING        NOT AVBL
LANCASTER      SUNNY     66  57  72 W6        30.07R
COATESVILLE    SUNNY     66  54  63 CALM      30.08S
POTTSTOWN      NOT AVBL
BLUE BELL      SUNNY     66  54  63 CALM      30.07S
DOYLESTOWN     NOT AVBL
WILLOW GROVE   NOT AVBL
NORTH PHILA    NOT AVBL
PHILADELPHIA   MOSUNNY   71  49  45 NW8       30.06R
$$




USA.gov is the U.S. government's official web portal to all federal, state and local government web resources and services.